Barksdale AFB, LA

1:05 PM CDT on March 29, 2017 (GMT -0500)
Barksdale Air Force Base

Weather History for KBAD - March, 2014

Change the Weather History Date:

Friday, March 7, 2014

  Actual Average Record
Temperature  
Mean Temperature 46 °F -  
Max Temperature 61 °F 61 °F 81 °F (2009)
Min Temperature 30 °F 43 °F 26 °F (2015)
Degree Days  
Heating Degree Days 20    
Moisture  
Dew Point 36 °F    
Average Humidity 87    
Maximum Humidity 100    
Minimum Humidity 43    
Precipitation  
Precipitation 0.00 in - - ()
Sea Level Pressure  
Sea Level Pressure 30.06 in    
Wind  
Wind Speed 4 mph (SE)    
Max Wind Speed 14 mph    
Max Gust Speed -    
Visibility 7 miles    
Events Fog    
Averages and records for this station are not official NWS values.
T = Trace of Precipitation, MM = Missing Value Source: NWS Daily Summary

Daily Weather History Graph

Daily Weather History Graph

Search for Another Location

Airport or City:

Trip Planner

Search our weather history database for the weather conditions in past years. The results will help you decide how hot, cold, wet, or windy it might be!

Date:

Astronomy

Mar. 07, 2014 Rise Set
Actual Time 6:34 AM CST 6:16 PM CST
Civil Twilight 6:10 AM CST 6:41 PM CST
Nautical Twilight 5:41 AM CST 7:09 PM CST
Astronomical Twilight 5:13 AM CST 7:38 PM CST
Moon 10:48 AM CST (3/7) 12:02 AM CST (3/7)
Length of Visible Light 12h 30m
Length of Day
11h 41m
Waxing Crescent, 42% of the Moon is Illuminated
Mar 7
Waxing Crescent
Mar 8
First Quarter
Mar 16
Full
Mar 23
Last Quarter
Mar 30
New

Hourly Weather History & Observations

Time (CST) Temp. Windchill Dew Point Humidity Pressure Visibility Wind Dir Wind Speed Gust Speed Precip Events Conditions
12:58 AM 37.2 °F - 35.6 °F 94% 30.11 in 10.0 mi East 2.3 mph - N/A   Clear
1:58 AM 33.6 °F - 32.2 °F 94% 30.09 in 10.0 mi ESE 2.3 mph - N/A   Clear
2:18 AM 32.0 °F 28.7 °F 32.0 °F 100% 30.07 in 9.0 mi ESE 3.5 mph - N/A   Clear
2:38 AM 32.0 °F 27.5 °F 32.0 °F 100% 30.07 in 10.0 mi ESE 4.6 mph - N/A   Clear
2:58 AM 32.2 °F 28.9 °F 31.3 °F 96% 30.07 in 7.0 mi ESE 3.5 mph - N/A   Clear
3:08 AM 32.0 °F - 32.0 °F 100% 30.06 in 5.0 mi SE 2.3 mph - N/A   Clear
3:28 AM 32.0 °F - 32.0 °F 100% 30.05 in 8.0 mi ESE 2.3 mph - N/A   Clear
3:38 AM 32.0 °F 28.7 °F 32.0 °F 100% 30.05 in 10.0 mi East 3.5 mph - N/A   Clear
3:48 AM 32.0 °F - 32.0 °F 100% 30.06 in 10.0 mi ESE 1.2 mph - N/A   Clear
3:59 AM 32.9 °F - 32.2 °F 97% 30.07 in 10.0 mi SSE 2.3 mph - N/A   Clear
4:29 AM 32.0 °F - 32.0 °F 100% 30.06 in 10.0 mi Calm Calm - N/A   Clear
4:39 AM 32.0 °F - 32.0 °F 100% 30.06 in 8.0 mi Calm Calm - N/A Fog Patches of Fog
4:58 AM 31.8 °F - 31.1 °F 97% 30.07 in 10.0 mi Calm Calm - N/A   Clear
5:18 AM 32.0 °F - 32.0 °F 100% 30.07 in 6.0 mi East 1.2 mph - N/A Fog Patches of Fog
5:38 AM 32.0 °F - 32.0 °F 100% 30.08 in 0.5 mi ESE 1.2 mph - N/A   Clear
5:46 AM 32.0 °F - 30.2 °F 93% 30.08 in 0.2 mi Calm Calm - N/A Fog Light Freezing Fog
5:58 AM 30.9 °F - 30.4 °F 98% 30.09 in 0.2 mi Calm Calm - N/A Fog Light Freezing Fog
6:19 AM 30.2 °F - 28.4 °F 93% 30.08 in 0.5 mi South 1.2 mph - N/A Fog Light Freezing Fog
6:31 AM 30.2 °F - 30.2 °F 100% 30.08 in 0.2 mi South 2.3 mph - N/A Fog Light Freezing Fog
6:46 AM 30.2 °F 25.4 °F 30.2 °F 100% 30.08 in 0.2 mi SSE 4.6 mph - N/A Fog Light Freezing Fog
6:58 AM 30.9 °F 27.5 °F 30.6 °F 99% 30.10 in 0.1 mi SSE 3.5 mph - 0.00 in Fog Light Freezing Fog
7:52 AM 33.8 °F 29.6 °F 32.0 °F 93% 30.10 in 0.1 mi SE 4.6 mph - N/A Fog Fog
7:58 AM 33.6 °F 29.4 °F 33.3 °F 99% 30.12 in 0.1 mi SSE 4.6 mph - 0.00 in Fog Fog
8:58 AM 37.6 °F 35.1 °F 37.2 °F 99% 30.13 in 0.2 mi SSE 3.5 mph - N/A Fog Fog
9:10 AM 39.2 °F 35.9 °F 39.2 °F 100% 30.11 in 0.5 mi SSE 4.6 mph - N/A Fog Fog
9:23 AM 39.2 °F 35.9 °F 39.2 °F 100% 30.11 in 0.8 mi SSE 4.6 mph - N/A   Mist
9:35 AM 41.0 °F 38.0 °F 41.0 °F 100% 30.11 in 2.0 mi South 4.6 mph - N/A   Partly Cloudy
9:46 AM 41.0 °F 36.4 °F 41.0 °F 100% 30.11 in 4.0 mi SSE 6.9 mph - N/A   Partly Cloudy
9:58 AM 43.2 °F 38.4 °F 43.2 °F 100% 30.11 in 10.0 mi SSE 8.1 mph - N/A   Scattered Clouds
10:58 AM 49.3 °F - 37.8 °F 65% 30.12 in 10.0 mi South 8.1 mph - N/A   Clear
11:58 AM 54.1 °F - 39.7 °F 58% 30.09 in 10.0 mi South 10.4 mph - N/A   Clear
12:58 PM 56.7 °F - 39.9 °F 54% 30.05 in 10.0 mi South 8.1 mph - N/A   Clear
1:58 PM 58.8 °F - 36.1 °F 43% 30.01 in 10.0 mi SE 11.5 mph - N/A   Clear
2:58 PM 60.1 °F - 39.9 °F 47% 29.98 in 10.0 mi SE 11.5 mph - N/A   Partly Cloudy
3:58 PM 61.5 °F - 40.5 °F 46% 29.97 in 10.0 mi SSE 11.5 mph - N/A   Clear
4:58 PM 61.0 °F - 40.5 °F 47% 29.96 in 10.0 mi SSE 13.8 mph - N/A   Partly Cloudy
5:58 PM 57.0 °F - 41.2 °F 55% 29.96 in 10.0 mi SSE 10.4 mph - N/A   Partly Cloudy
6:58 PM 50.4 °F - 40.5 °F 69% 29.97 in 10.0 mi SSE 9.2 mph - N/A   Clear
7:58 PM 51.1 °F - 41.4 °F 69% 29.98 in 10.0 mi SSE 10.4 mph - N/A   Clear
8:58 PM 50.5 °F - 43.7 °F 77% 29.99 in 10.0 mi SSE 11.5 mph - N/A   Clear
9:58 PM 47.3 °F - 43.0 °F 85% 29.99 in 10.0 mi SSE 8.1 mph - N/A   Clear
10:58 PM 47.8 °F - 43.5 °F 85% 30.01 in 10.0 mi South 9.2 mph - N/A   Clear
11:58 PM 46.8 °F - 43.2 °F 87% 30.01 in 10.0 mi South 6.9 mph - N/A   Clear